This demonstration page uses our WeatherBlox Daily Observations layout. Learn more.

Left ArrowRight Arrow

41.86663, -103.66717

Hourly Observations for October 17, 2018

Temp ( °F °C ) Dew Point ( °F °C ) Humidity (%) Winds ( mph kmh ) Pressure ( in mb ) Visibility ( mi km ) Precip ( " mm )
12:53 am 00:53 Clear 35 1.7 32 0 89 89 NW 3 6 30.45 1031 10 16 0.00 0.00
1:53 am 01:53 Clear 35 1.7 32 0 89 89 Calm 30.45 1031 10 16 0.00 0.00
2:53 am 02:53 Clear 34 1.1 32 0 92 92 N 5 7 30.44 1031 10 16 0.00 0.00
3:53 am 03:53 Clear 31 -0.6 31 -0.6 100 100 NW 6 9 30.45 1031 10 16 0.00 0.00
4:53 am 04:53 Clear 29 -1.7 29 -1.7 100 100 NNW 6 9 30.46 1032 10 16 0.00 0.00
5:53 am 05:53 Clear 28 -2.2 28 -2.2 100 100 Calm 30.49 1032 10 16 0.00 0.00
6:53 am 06:53 Clear 26 -3.3 26 -3.3 100 100 NW 5 7 30.52 1034 8 13 0.00 0.00
7:53 am 07:53 Sunny 31 -0.6 30 -1.1 96 96 NW 3 6 30.53 1034 10 16 0.00 0.00
8:53 am 08:53 Sunny 37 2.8 34 1.1 89 89 Calm 30.54 1034 10 16 0.00 0.00
9:53 am 09:53 Sunny 44 6.7 36 2.2 73 73 VRB 3 6 30.52 1034 10 16 0.00 0.00
10:53 am 10:53 Sunny 52 11.1 38 3.3 59 59 Calm 30.50 1033 10 16 0.00 0.00
11:53 am 11:53 Sunny 56 13.3 39 3.9 53 53 VRB 3 6 30.47 1032 10 16 0.00 0.00
12:53 pm 12:53 Sunny 61 16.1 40 4.4 46 46 SSE 7 11 30.43 1031 10 16 0.00 0.00
1:53 pm 13:53 Sunny 63 17.2 38 3.3 40 40 SE 5 7 30.39 1029 10 16 0.00 0.00
2:53 pm 14:53 Sunny 65 18.3 37 2.8 36 36 SSW 8 13 30.36 1028 10 16 0.00 0.00
3:53 pm 15:53 Sunny 66 18.9 35 1.7 32 32 SSE 9 15 30.35 1028 10 16 0.00 0.00
4:53 pm 16:53 Sunny 65 18.3 36 2.2 34 34 SE 12 19 30.35 1028 10 16 0.00 0.00
5:53 pm 17:53 Sunny 60 15.6 37 2.8 42 42 SSE 9 15 30.36 1028 10 16 0.00 0.00
6:53 pm 18:53 Clear 49 9.4 36 2.2 61 61 E 7 11 30.41 1030 10 16 0.00 0.00
7:53 pm 19:53 Clear 46 7.8 37 2.8 71 71 E 6 9 30.40 1030 10 16 0.00 0.00
8:53 pm 20:53 Clear 44 6.7 37 2.8 76 76 E 7 11 30.38 1029 10 16 0.00 0.00
9:53 pm 21:53 Clear 46 7.8 38 3.3 73 73 E 8 13 30.36 1028 10 16 0.00 0.00
10:53 pm 22:53 Mostly Clear 46 7.8 38 3.3 73 73 ESE 7 11 30.32 1027 10 16 0.00 0.00
11:53 pm 23:53 Cloudy 52 11.1 38 3.3 59 59 SE 12 19 30.29 1026 10 16 0.00 0.00

Powered by AerisWeather